Vorticity
5 7 24 1 2 -2 -2 1 2 -0 4 11 4 6 6 6 17 8 0 4 3 5 10 6 9 16 13 12 12 16 15 13 15 7 12 5 8 15 17 12 12 6 4 9
8 21 5 5 4 18 2 10 6 13 17 5 5 5 3 14 18 -1 12 1 2 10 7 10 17 15 10 14 16 11 22 22 21 12 9 18 8 8 15 16 15 16 3 4
8 14 6 6 22 4 14 7 20 15 9 5 12 26 15 29 35 -5 3 1 2 4 8 18 9 4 16 22 17 13 8 20 23 21 23 32 11 8 6 13 14 15 17 6
16 2 4 16 8 13 2 20 8 10 22 15 -17 -1 3 41 27 3 1 2 6 14 26 22 20 12 -1 12 20 21 22 22 18 17 20 20 22 11 13 7 12 13 19 15
1 2 4 11 13 4 33 7 11 27 6 8 24 11 1 19 9 0 -6 7 18 20 4 14 24 5 0 12 22 6 16 17 18 16 21 18 26 12 20 8 5 11 9 25
13 13 12 7 18 8 10 1 12 10 7 19 22 -7 16 24 3 -2 -2 11 19 5 3 16 11 15 -4 15 1 19 31 15 7 9 20 24 21 16 12 16 7 5 11 18
18 12 6 13 11 8 -1 16 13 13 10 -2 27 18 -37 -3 11 -4 9 12 11 7 -2 1 10 11 21 1 5 13 29 10 5 9 20 22 23 17 20 21 14 5 10 11
7 18 12 -10 14 9 17 6 8 9 8 -4 14 10 -6 13 13 -5 8 9 9 5 8 4 3 -2 21 18 31 31 25 10 8 -2 10 21 15 24 18 25 16 12 5 20
11 16 7 5 9 13 8 9 5 4 21 11 8 20 9 6 -2 10 5 6 10 12 16 11 10 4 7 6 10 12 36 17 14 3 12 15 22 18 23 16 17 10 6 16
3 15 13 5 8 23 7 4 10 10 5 14 13 25 -25 -5 -4 8 7 6 7 10 7 15 13 5 3 13 -10 20 15 -1 35 13 8 15 15 13 15 18 10 8 2 4
11 16 -5 8 13 4 7 9 9 6 4 8 3 22 6 10 4 11 8 8 5 6 7 7 10 10 8 3 18 11 11 22 40 25 12 33 17 11 9 12 16 8 6 4
16 13 1 7 8 6 4 5 5 2 13 3 1 14 12 9 2 3 17 6 7 4 5 4 4 8 11 6 9 5 19 16 5 43 17 3 18 28 28 14 13 15 10 11
-0 4 15 13 21 19 19 16 18 7 6 21 -1 7 0 4 -13 12 11 21 7 6 3 2 2 2 3 6 10 8 7 24 5 4 3 2 17 48 43 9 14 25 18 10
24 12 -11 -29 -23 -10 -12 -8 1 8 4 -2 -34 -11 4 3 11 -0 2 10 20 7 5 3 2 2 2 2 1 5 7 7 33 15 24 22 10 -3 11 11 8 29 10 27
9 5 14 9 7 15 22 26 22 2 7 -14 -27 -20 11 31 34 44 26 19 17 7 8 5 4 2 2 3 2 3 4 4 7 29 3 16 14 49 11 42 19 14 10 21
3 6 -7 7 47 5 -8 22 15 11 17 3 22 13 9 9 8 11 12 14 20 22 6 6 3 4 5 3 3 3 3 4 5 3 3 36 -10 7 9 20 21 55 16 13
20 18 -9 23 -10 12 64 -6 3 21 27 18 8 12 11 9 7 11 14 13 16 21 19 10 7 4 4 6 5 5 4 4 4 4 4 8 22 23 14 17 -2 -8 -14 23
3 6 22 -4 41 21 -19 -0 34 31 15 12 11 20 2 8 7 11 7 15 14 14 18 20 14 8 6 4 4 6 6 5 4 4 5 4 3 7 5 5 10 10 32 11
23 18 6 3 4 -20 99 -3 6 8 8 10 34 5 10 15 13 17 8 7 9 12 14 14 17 17 13 8 7 6 6 7 6 6 4 4 4 4 3 4 5 5 5 5
12 12 -5 13 9 -0 -21 -13 -8 15 31 16 -25 -11 22 2 6 7 8 12 8 6 9 11 13 15 15 16 15 12 9 8 10 10 8 9 7 5 4 4 4 3 3 4
12 20 6 8 -12 11 1 25 19 17 -2 -7 -6 -9 -3 12 -1 3 9 8 10 12 8 7 7 9 11 15 15 15 13 11 11 11 9 8 9 10 9 5 6 7 7 9
2 10 8 35 5 26 4 -2 4 -32 -19 4 3 -5 2 9 7 3 9 13 6 8 11 10 8 7 8 8 9 13 17 15 13 11 10 11 9 10 11 11 10 9 8 8
2 -8 -21 -21 -38 -30 -22 2 10 9 14 8 17 13 11 12 8 8 7 13 13 4 6 9 10 10 8 7 7 8 9 12 14 14 12 10 8 8 8 8 8 7 6 6
10 18 -6 17 19 1 -13 -5 25 27 26 23 31 35 25 10 23 25 22 9 7 12 3 3 7 10 11 9 7 7 8 7 8 10 13 12 10 10 9 9 7 6 6 7
3 8 -3 -27 19 8 6 11 5 7 14 21 4 3 4 4 9 11 14 16 11 12 13 10 9 4 12 10 10 7 8 8 8 9 10 10 11 11 9 7 7 6 5 6
12 13 16 6 25 20 18 6 15 -2 6 23 5 9 16 3 6 10 11 13 13 8 7 6 6 12 7 13 11 10 8 7 8 9 10 11 12 12 10 10 10 10 10 12
Height
3093 3093 3092 3091 3090 3089 3086 3084 3082 3080 3080 3077 3073 3070 3069 3069 3069 3069 3066 3065 3066 3066 3066 3063 3059 3056 3052 3050 3046 3045 3043 3043 3045 3046 3048 3050 3054 3058 3062 3067 3074 3080 3088 3093
3094 3091 3090 3089 3087 3085 3083 3080 3078 3075 3074 3072 3069 3064 3063 3063 3063 3063 3060 3061 3061 3060 3059 3055 3052 3048 3043 3039 3036 3033 3030 3029 3031 3033 3036 3039 3043 3046 3051 3055 3062 3068 3074 3081
3090 3090 3088 3086 3083 3081 3079 3077 3076 3074 3071 3069 3066 3058 3056 3054 3055 3056 3056 3057 3057 3053 3049 3046 3043 3040 3035 3031 3028 3024 3022 3020 3019 3021 3022 3025 3030 3034 3039 3043 3049 3056 3064 3070
3089 3088 3086 3083 3082 3080 3076 3075 3074 3072 3070 3067 3065 3059 3051 3049 3049 3052 3054 3055 3053 3049 3043 3039 3036 3034 3031 3025 3020 3016 3013 3011 3011 3012 3012 3015 3018 3022 3028 3033 3039 3045 3053 3060
3090 3086 3084 3081 3080 3078 3076 3073 3071 3069 3067 3066 3062 3063 3050 3050 3049 3052 3053 3052 3049 3044 3039 3036 3031 3029 3026 3019 3014 3010 3006 3004 3004 3004 3005 3007 3009 3014 3019 3024 3029 3034 3042 3047
3087 3086 3083 3081 3079 3077 3074 3073 3070 3068 3067 3064 3055 3057 3046 3047 3049 3050 3050 3047 3044 3040 3037 3033 3029 3025 3021 3016 3009 3003 2997 2999 2998 2998 2998 2998 3000 3004 3008 3014 3021 3027 3032 3037
3086 3084 3082 3080 3078 3076 3074 3072 3070 3069 3067 3063 3055 3056 3044 3046 3046 3048 3047 3044 3040 3037 3036 3032 3027 3023 3018 3014 3008 3001 2994 2994 2995 2994 2993 2993 2993 2996 2999 3004 3012 3019 3025 3029
3085 3083 3082 3080 3078 3076 3074 3073 3073 3078 3069 3061 3056 3051 3044 3043 3044 3044 3043 3041 3038 3035 3033 3030 3026 3021 3016 3011 3004 2997 2993 2992 2992 2992 2990 2987 2986 2987 2991 2996 3002 3010 3017 3022
3086 3082 3080 3079 3078 3078 3074 3074 3072 3071 3067 3064 3050 3045 3041 3040 3041 3041 3040 3038 3036 3034 3031 3028 3025 3020 3016 3010 3002 2996 2991 2990 2988 2985 2983 2981 2981 2982 2983 2988 2996 3001 3007 3012
3088 3082 3078 3078 3078 3076 3075 3074 3072 3070 3069 3063 3047 3042 3039 3037 3038 3038 3038 3036 3035 3032 3029 3026 3022 3018 3014 3008 3002 2997 2991 2986 2981 2980 2978 2976 2975 2976 2978 2983 2988 2994 3000 3005
3087 3085 3080 3076 3074 3075 3075 3072 3072 3071 3067 3064 3061 3039 3036 3037 3037 3036 3035 3034 3033 3031 3028 3025 3021 3017 3013 3008 3004 2998 2992 2985 2979 2977 2974 2970 2970 2971 2974 2977 2982 2987 2993 2999
3087 3082 3075 3073 3071 3070 3070 3071 3070 3069 3065 3062 3058 3040 3034 3035 3035 3035 3033 3031 3030 3029 3027 3024 3021 3017 3013 3009 3005 2998 2993 2987 2981 2976 2974 2968 2968 2966 2967 2972 2976 2980 2985 2991
3084 3080 3075 3069 3070 3067 3065 3065 3066 3066 3064 3057 3057 3037 3034 3033 3031 3030 3028 3027 3026 3025 3023 3021 3020 3017 3014 3010 3005 3001 2996 2990 2984 2980 2975 2971 2968 2964 2963 2968 2971 2975 2979 2984
3082 3077 3074 3070 3066 3063 3059 3059 3060 3061 3060 3051 3040 3032 3031 3030 3028 3025 3023 3022 3022 3021 3020 3019 3017 3015 3013 3009 3005 3002 2998 2993 2987 2982 2977 2974 2972 2970 2968 2968 2969 2970 2972 2979
3080 3072 3068 3063 3059 3056 3051 3049 3050 3046 3047 3047 3035 3030 3030 3028 3024 3021 3019 3018 3017 3017 3017 3016 3015 3013 3011 3009 3006 3002 2999 2996 2991 2986 2983 2980 2976 2973 2971 2967 2968 2968 2975 2978
3073 3070 3064 3054 3052 3050 3043 3041 3040 3038 3037 3035 3033 3026 3026 3024 3022 3020 3017 3013 3012 3011 3011 3011 3010 3010 3009 3008 3006 3003 3000 2997 2993 2989 2986 2983 2980 2978 2975 2974 2975 2976 2978 2981
3067 3065 3063 3054 3052 3046 3039 3035 3034 3032 3029 3030 3027 3025 3024 3020 3018 3015 3013 3011 3009 3007 3006 3006 3006 3005 3005 3004 3004 3002 3000 2998 2996 2993 2989 2986 2983 2981 2979 2976 2977 2977 2975 2977
3063 3060 3061 3053 3049 3047 3034 3032 3029 3027 3026 3024 3022 3022 3021 3018 3015 3013 3010 3008 3006 3003 3001 3000 3000 3000 3000 2999 2999 2999 2998 2997 2996 2994 2992 2990 2987 2984 2983 2982 2981 2980 2979 2977
3059 3059 3056 3055 3048 3040 3029 3029 3028 3024 3023 3022 3020 3021 3019 3016 3012 3011 3007 3005 3004 3002 2999 2997 2996 2995 2994 2994 2994 2994 2993 2993 2993 2992 2991 2990 2988 2986 2985 2984 2985 2985 2985 2985
3051 3054 3056 3049 3049 3040 3028 3028 3026 3024 3018 3017 3018 3017 3017 3014 3010 3009 3006 3003 3001 2999 2998 2996 2994 2992 2991 2989 2989 2989 2989 2989 2989 2989 2988 2988 2987 2986 2984 2984 2984 2985 2986 2987
3047 3044 3044 3044 3041 3027 3023 3022 3024 3025 3024 3018 3015 3013 3013 3011 3009 3006 3003 3001 2998 2996 2995 2993 2992 2990 2989 2987 2985 2985 2984 2985 2985 2985 2984 2984 2984 2984 2984 2983 2982 2982 2983 2985
3042 3041 3036 3036 3036 3025 3018 3018 3021 3019 3016 3015 3012 3008 3004 3003 3003 3000 2998 2996 2994 2993 2991 2990 2989 2987 2986 2985 2983 2982 2981 2980 2981 2981 2982 2981 2981 2981 2982 2982 2981 2980 2980 2982
3036 3034 3031 3030 3019 3018 3015 3016 3014 3010 3007 3006 3004 3002 2998 2994 2994 2993 2991 2990 2989 2987 2987 2986 2985 2984 2983 2982 2980 2979 2978 2976 2976 2976 2977 2978 2979 2979 2979 2979 2979 2980 2980 2980
3021 3025 3019 3016 3004 3009 3010 3006 3004 3001 2997 2995 2993 2989 2988 2986 2985 2983 2983 2982 2982 2982 2980 2980 2979 2979 2978 2977 2976 2975 2974 2972 2971 2971 2970 2971 2973 2974 2974 2975 2976 2975 2976 2976
3013 3012 3008 3000 2996 2998 2998 2998 2994 2991 2988 2986 2985 2983 2980 2979 2977 2976 2975 2974 2973 2974 2973 2972 2972 2972 2972 2970 2969 2969 2969 2969 2968 2967 2966 2965 2966 2966 2967 2968 2969 2969 2969 2969
2997 2996 2996 2988 2994 2988 2981 2986 2984 2980 2980 2977 2975 2972 2972 2969 2967 2966 2964 2965 2965 2964 2964 2964 2964 2964 2965 2964 2964 2962 2962 2962 2962 2962 2962 2961 2961 2962 2962 2962 2962 2962 2963 2963